• In Kazakhstan
  • List of Countries
  • For 7 days
  • Water Temperature
  • Satellite Maps
  • Weather Map
  • News
  • Weather Widgets
  • user-avatar
    Login

    Hourly Weather Lankaran

    Today, 27 June, Thursday

    Time Temperature Precipitation Wind Pressure Humidity
    00:00 +16°C° 0 mm 1 mps 634 mmHg 39%
    01:00 +16°C° 0 mm 1 mps 634 mmHg 44%
    02:00 +15°C° 0 mm 1 mps 633 mmHg 49%
    03:00 +15°C° 0 mm 1 mps 633 mmHg 54%
    04:00 +16°C° 0 mm 1 mps 633 mmHg 54%
    05:00 +18°C° 0 mm 1 mps 634 mmHg 55%
    06:00 +19°C° 0 mm 1 mps 634 mmHg 56%
    07:00 +19°C° 0 mm 2 mps 635 mmHg 52%
    08:00 +21°C° 0 mm 2 mps 635 mmHg 49%
    09:00 +22°C° 0 mm 3 mps 635 mmHg 45%
    10:00 +24°C° 0 mm 3 mps 635 mmHg 44%
    11:00 +25°C° 0 mm 3 mps 635 mmHg 42%
    12:00 +25°C° 0 mm 4 mps 635 mmHg 41%
    13:00 +25°C° 0 mm 4 mps 634 mmHg 42%
    14:00 +25°C° 0 mm 4 mps 634 mmHg 43%
    15:00 +25°C° 0 mm 4 mps 634 mmHg 44%
    16:00 +24°C° 0 mm 3 mps 633 mmHg 48%
    17:00 +22°C° 0 mm 3 mps 633 mmHg 52%
    18:00 +20°C° 0 mm 3 mps 632 mmHg 56%
    19:00 +19°C° 0 mm 2 mps 632 mmHg 58%
    20:00 +18°C° 0 mm 2 mps 631 mmHg 61%
    21:00 +16°C° 0 mm 1 mps 631 mmHg 63%
    22:00 +16°C° 0 mm 1 mps 631 mmHg 61%
    23:00 +16°C° 0 mm 1 mps 631 mmHg 60%

    Tomorrow, 28 June, Friday

    Time Temperature Precipitation Wind Pressure Humidity
    00:00 +15°C° 0 mm 1 mps 631 mmHg 58%
    01:00 +15°C° 0 mm 1 mps 630 mmHg 59%
    02:00 +14°C° 0 mm 0 mps 630 mmHg 60%
    03:00 +14°C° 0 mm 0 mps 630 mmHg 60%
    04:00 +15°C° 0 mm 0 mps 630 mmHg 59%
    05:00 +16°C° 0 mm 0 mps 630 mmHg 57%
    06:00 +17°C° 0 mm 0 mps 630 mmHg 55%
    07:00 +20°C° 0 mm 1 mps 631 mmHg 51%
    08:00 +21°C° 0 mm 2 mps 631 mmHg 48%
    09:00 +24°C° 0 mm 2 mps 631 mmHg 44%
    10:00 +24°C° 0 mm 3 mps 631 mmHg 42%
    11:00 +25°C° 0 mm 3 mps 631 mmHg 41%
    12:00 +26°C° 0 mm 4 mps 631 mmHg 39%
    13:00 +26°C° 0 mm 4 mps 630 mmHg 40%
    14:00 +26°C° 0 mm 3 mps 630 mmHg 40%
    15:00 +26°C° 0 mm 3 mps 629 mmHg 41%
    16:00 +25°C° 0.1 mm 3 mps 628 mmHg 45%
    17:00 +24°C° 0.1 mm 3 mps 628 mmHg 49%
    18:00 +21°C° 0.1 mm 3 mps 627 mmHg 53%
    19:00 +20°C° 0 mm 2 mps 627 mmHg 55%
    20:00 +19°C° 0 mm 2 mps 627 mmHg 58%
    21:00 +19°C° 0 mm 1 mps 627 mmHg 61%
    22:00 +19°C° 0 mm 1 mps 627 mmHg 61%
    23:00 +19°C° 0 mm 1 mps 627 mmHg 60%

    Day after tomorrow, 29 June, Saturday

    Time Temperature Precipitation Wind Pressure Humidity
    00:00 +18°C° 0 mm 2 mps 626 mmHg 60%
    01:00 +19°C° 0 mm 1 mps 626 mmHg 60%
    02:00 +18°C° 0 mm 1 mps 626 mmHg 61%
    03:00 +18°C° 0 mm 1 mps 626 mmHg 61%
    04:00 +19°C° 0 mm 1 mps 626 mmHg 59%
    05:00 +20°C° 0 mm 1 mps 627 mmHg 56%
    06:00 +19°C° 0 mm 0 mps 628 mmHg 53%
    07:00 +23°C° 0 mm 1 mps 628 mmHg 49%
    08:00 +24°C° 0 mm 2 mps 629 mmHg 46%
    09:00 +25°C° 0 mm 3 mps 629 mmHg 42%
    10:00 +26°C° 0 mm 3 mps 629 mmHg 42%
    11:00 +26°C° 0 mm 4 mps 629 mmHg 41%
    12:00 +27°C° 0 mm 4 mps 629 mmHg 41%
    13:00 +26°C° 0 mm 4 mps 628 mmHg 45%
    14:00 +26°C° 0 mm 4 mps 628 mmHg 49%
    15:00 +25°C° 0 mm 4 mps 627 mmHg 53%
    16:00 +23°C° 0 mm 4 mps 627 mmHg 58%
    17:00 +22°C° 0 mm 3 mps 626 mmHg 63%
    18:00 +20°C° 0 mm 2 mps 626 mmHg 68%
    19:00 +19°C° 0 mm 2 mps 626 mmHg 72%
    20:00 +19°C° 0 mm 1 mps 626 mmHg 75%
    21:00 +16°C° 0 mm 1 mps 626 mmHg 79%
    22:00 +16°C° 0 mm 1 mps 626 mmHg 77%
    23:00 +16°C° 0 mm 1 mps 626 mmHg 76%

    30 June, Sunday

    Time Temperature Precipitation Wind Pressure Humidity
    00:00 +15°C° 0 mm 1 mps 626 mmHg 74%
    01:00 +15°C° 0 mm 1 mps 626 mmHg 78%
    02:00 +15°C° 0 mm 1 mps 626 mmHg 83%
    03:00 +14°C° 0 mm 1 mps 627 mmHg 87%
    04:00 +15°C° 0 mm 1 mps 627 mmHg 85%
    05:00 +15°C° 0 mm 1 mps 628 mmHg 83%
    06:00 +16°C° 0 mm 1 mps 628 mmHg 81%
    07:00 +16°C° 0.1 mm 2 mps 628 mmHg 80%
    08:00 +17°C° 0.1 mm 2 mps 629 mmHg 79%
    09:00 +17°C° 0.1 mm 3 mps 629 mmHg 79%
    10:00 +17°C° 0.1 mm 3 mps 629 mmHg 80%
    11:00 +17°C° 0.1 mm 4 mps 629 mmHg 81%
    12:00 +17°C° 0.1 mm 4 mps 629 mmHg 82%
    13:00 +17°C° 0.4 mm 4 mps 629 mmHg 84%
    14:00 +16°C° 0.4 mm 5 mps 628 mmHg 86%
    15:00 +15°C° 0.4 mm 5 mps 628 mmHg 88%
    16:00 +15°C° 0.5 mm 5 mps 628 mmHg 90%
    17:00 +14°C° 0.5 mm 4 mps 628 mmHg 91%
    18:00 +14°C° 0.5 mm 4 mps 628 mmHg 92%
    19:00 +14°C° 0.2 mm 4 mps 628 mmHg 93%
    20:00 +14°C° 0.2 mm 3 mps 629 mmHg 95%
    21:00 +14°C° 0.2 mm 3 mps 629 mmHg 96%
    22:00 +14°C° 0.2 mm 3 mps 629 mmHg 96%
    23:00 +15°C° 0.2 mm 2 mps 629 mmHg 95%

    1 July, Monday

    Time Temperature Precipitation Wind Pressure Humidity
    00:00 +15°C° 0.2 mm 2 mps 629 mmHg 95%
    01:00 +15°C° 0.3 mm 2 mps 629 mmHg 96%
    02:00 +15°C° 0.3 mm 2 mps 629 mmHg 96%
    03:00 +15°C° 0.3 mm 2 mps 629 mmHg 96%
    04:00 +14°C° 0.6 mm 3 mps 629 mmHg 96%
    05:00 +14°C° 0.6 mm 3 mps 629 mmHg 95%
    06:00 +13°C° 0.6 mm 3 mps 630 mmHg 94%
    07:00 +13°C° 0.2 mm 4 mps 630 mmHg 92%
    08:00 +13°C° 0.2 mm 4 mps 630 mmHg 89%
    09:00 +13°C° 0.2 mm 4 mps 630 mmHg 87%
    10:00 +13°C° 0.1 mm 4 mps 630 mmHg 85%
    11:00 +13°C° 0.1 mm 4 mps 630 mmHg 83%
    12:00 +13°C° 0.1 mm 4 mps 630 mmHg 81%
    13:00 +12°C° 0 mm 4 mps 630 mmHg 83%
    14:00 +12°C° 0 mm 3 mps 629 mmHg 84%
    15:00 +11°C° 0 mm 3 mps 629 mmHg 86%
    16:00 +11°C° 0.2 mm 3 mps 629 mmHg 87%
    17:00 +10°C° 0.2 mm 3 mps 630 mmHg 89%
    18:00 +10°C° 0.2 mm 2 mps 630 mmHg 90%
    19:00 +10°C° 0.1 mm 2 mps 630 mmHg 89%
    20:00 +9°C° 0.1 mm 2 mps 631 mmHg 88%
    21:00 +9°C° 0.1 mm 2 mps 632 mmHg 87%
    22:00 +9°C° 0 mm 2 mps 632 mmHg 86%
    23:00 +11°C° 0 mm 1 mps 632 mmHg 84%

    2 July, Tuesday

    Time Temperature Precipitation Wind Pressure Humidity
    00:00 +11°C° 0 mm 1 mps 632 mmHg 83%
    01:00 +11°C° 0 mm 1 mps 633 mmHg 82%
    02:00 +11°C° 0 mm 1 mps 633 mmHg 81%
    03:00 +10°C° 0 mm 2 mps 633 mmHg 80%
    04:00 +10°C° 0 mm 2 mps 633 mmHg 77%
    05:00 +11°C° 0 mm 1 mps 634 mmHg 73%
    06:00 +11°C° 0 mm 1 mps 634 mmHg 70%
    07:00 +13°C° 0 mm 2 mps 635 mmHg 64%
    08:00 +14°C° 0 mm 2 mps 635 mmHg 58%
    09:00 +16°C° 0 mm 3 mps 636 mmHg 52%
    10:00 +17°C° 0 mm 3 mps 636 mmHg 50%
    11:00 +18°C° 0 mm 3 mps 636 mmHg 48%
    12:00 +18°C° 0 mm 4 mps 636 mmHg 46%
    13:00 +19°C° 0 mm 4 mps 636 mmHg 46%
    14:00 +19°C° 0 mm 4 mps 636 mmHg 46%
    15:00 +19°C° 0 mm 4 mps 635 mmHg 47%
    16:00 +18°C° 0 mm 4 mps 635 mmHg 50%
    17:00 +17°C° 0 mm 3 mps 635 mmHg 53%
    18:00 +16°C° 0 mm 3 mps 635 mmHg 56%
    19:00 +15°C° 0 mm 2 mps 634 mmHg 57%
    20:00 +13°C° 0 mm 2 mps 634 mmHg 58%
    21:00 +12°C° 0 mm 1 mps 634 mmHg 59%
    22:00 +12°C° 0 mm 1 mps 634 mmHg 56%
    23:00 +12°C° 0 mm 1 mps 633 mmHg 52%
    Show more